| time (UTC) | temp F | wind direction | speed MPH | gust MPH | rain 1hr in | rain 24hr in | rain mn in | humidity % | barometer mb |
| 20260901192805 | 0 | 169 | 2.0 | 3.0 | 0.00 | 0.00 | 0.00 | 1064.4 | |
| 20260901192300 | 0 | 143 | 1.0 | 3.0 | 0.00 | 0.00 | 0.00 | 1064.5 | |
| 20260901191756 | 0 | 129 | 1.0 | 2.0 | 0.00 | 0.00 | 0.00 | 1064.7 | |
| 20260901191252 | 0 | 154 | 1.0 | 1.0 | 0.00 | 0.00 | 0.00 | 1064.5 | |
| 20260901190747 | 0 | 110 | 2.0 | 3.0 | 0.00 | 0.00 | 0.00 | 1064.8 | |
| 20260901190243 | 0 | 226 | 3.0 | 3.0 | 0.00 | 0.00 | 0.00 | 1064.9 | |
| 20260901185740 | 0 | 195 | 1.0 | 3.0 | 0.00 | 0.00 | 0.00 | 1064.9 | |
| 20260901185239 | 0 | 265 | 3.0 | 5.0 | 0.00 | 0.00 | 0.00 | 1064.9 | |
| 20260901184734 | 0 | 118 | 1.0 | 7.0 | 0.00 | 0.00 | 0.00 | 1064.8 | |
| 20260901184224 | 0 | 233 | 2.0 | 3.0 | 0.00 | 0.00 | 0.00 | 1065.0 | |
| 20260901183720 | 0 | 242 | 1.0 | 3.0 | 0.00 | 0.00 | 0.00 | 1065.0 | |
| 20260901183219 | 0 | 162 | 1.0 | 3.0 | 0.00 | 0.00 | 0.00 | 1065.4 | |
| 20260901182715 | 0 | 152 | 1.0 | 5.0 | 0.00 | 0.00 | 0.00 | 1065.2 | |
| 20260901182208 | 0 | 166 | 1.0 | 3.0 | 0.00 | 0.00 | 0.00 | 1065.2 | |
| 20260901181703 | 0 | 157 | 3.0 | 6.0 | 0.00 | 0.00 | 0.00 | 1065.2 | |
| 20260901181157 | 0 | 69 | 2.0 | 3.0 | 0.00 | 0.00 | 0.00 | 1065.3 | |
| 20260901180651 | 0 | 8 | 5.0 | 6.0 | 0.00 | 0.00 | 0.00 | 1065.2 | |
| 20260901180145 | 0 | 345 | 3.0 | 3.0 | 0.00 | 0.00 | 0.00 | 1065.6 | |
| 20260901175644 | 0 | 174 | 2.0 | 5.0 | 0.00 | 0.00 | 0.00 | 1065.7 | |
| 20260901175139 | 0 | 165 | 1.0 | 5.0 | 0.00 | 0.00 | 0.00 | 1066.0 | |
| 20260901174635 | 0 | 170 | 1.0 | 6.0 | 0.00 | 0.00 | 0.00 | 1065.6 | |
| 20260901174130 | 0 | 243 | 3.0 | 5.0 | 0.00 | 0.00 | 0.00 | 1065.8 | |
| 20260901173626 | 0 | 143 | 1.0 | 2.0 | 0.00 | 0.00 | 0.00 | 1066.0 | |
| 20260901173121 | 0 | 190 | 3.0 | 3.0 | 0.00 | 0.00 | 0.00 | 1066.0 | |
| 20260901172617 | 0 | 170 | 3.0 | 5.0 | 0.00 | 0.00 | 0.00 | 1066.1 | |
| 20260901172115 | 0 | 199 | 1.0 | 5.0 | 0.00 | 0.00 | 0.00 | 1066.0 | |
| 20260901171614 | 0 | 280 | 5.0 | 9.0 | 0.00 | 0.00 | 0.00 | 1066.2 | |
| 20260901171108 | 0 | 346 | 4.0 | 8.0 | 0.00 | 0.00 | 0.00 | 1066.3 | |
| 20260901170607 | 0 | 165 | 2.0 | 5.0 | 0.00 | 0.00 | 0.00 | 1066.2 | |
| 20260901165601 | 0 | 201 | 3.0 | 8.0 | 0.00 | 0.00 | 0.00 | 1066.4 | |
| 20260901165057 | 0 | 241 | 4.0 | 5.0 | 0.00 | 0.00 | 0.00 | 1066.3 | |
| 20260901164552 | 0 | 308 | 3.0 | 6.0 | 0.00 | 0.00 | 0.00 | 1066.3 | |
| 20260901164047 | 0 | 253 | 2.0 | 8.0 | 0.00 | 0.00 | 0.00 | 1066.5 | |
| 20260901163543 | 0 | 201 | 3.0 | 5.0 | 0.00 | 0.00 | 0.00 | 1066.6 | |
| 20260901163042 | 0 | 176 | 2.0 | 3.0 | 0.00 | 0.00 | 0.00 | 1066.5 | |
| 20260901162537 | 0 | 265 | 2.0 | 6.0 | 0.00 | 0.00 | 0.00 | 1066.6 | |
| 20260901162036 | 0 | 136 | 3.0 | 5.0 | 0.00 | 0.00 | 0.00 | 1066.4 | |
| 20260901161535 | 0 | 307 | 6.0 | 8.0 | 0.00 | 0.00 | 0.00 | 1066.6 | |
| 20260901161035 | 0 | 255 | 3.0 | 8.0 | 0.00 | 0.00 | 0.00 | 1066.4 | |
| 20260901160532 | 0 | 269 | 2.0 | 8.0 | 0.00 | 0.00 | 0.00 | 1066.6 | |
| 20260901160027 | 0 | 251 | 6.0 | 8.0 | 0.00 | 0.00 | 0.00 | 1066.6 | |
| 20260901155525 | 0 | 260 | 5.0 | 7.0 | 0.00 | 0.00 | 0.00 | 1066.4 | |
| 20260901155022 | 0 | 103 | 2.0 | 7.0 | 0.00 | 0.00 | 0.00 | 1066.6 | |
| 20260901154521 | 0 | 189 | 2.0 | 8.0 | 0.00 | 0.00 | 0.00 | 1066.5 | |
| 20260901154016 | 0 | 164 | 3.0 | 10.0 | 0.00 | 0.00 | 0.00 | 1066.7 | |
| 20260901153510 | 0 | 194 | 1.0 | 3.0 | 0.00 | 0.00 | 0.00 | 1066.6 | |
| 20260901153010 | 0 | 204 | 3.0 | 6.0 | 0.00 | 0.00 | 0.00 | 1066.5 | |
| 20260901152505 | 0 | 227 | 2.0 | 3.0 | 0.00 | 0.00 | 0.00 | 1066.5 | |
| 20260901152004 | 0 | 292 | 7.0 | 8.0 | 0.00 | 0.00 | 0.00 | 1066.7 | |
| 20260901151500 | 0 | 161 | 3.0 | 8.0 | 0.00 | 0.00 | 0.00 | 1066.6 | |
| 20260901150959 | 0 | 166 | 1.0 | 7.0 | 0.00 | 0.00 | 0.00 | 1066.7 | |
| 20260901150457 | 0 | 186 | 1.0 | 3.0 | 0.00 | 0.00 | 0.00 | 1066.7 | |
| 20260901145954 | 0 | 159 | 3.0 | 6.0 | 0.00 | 0.00 | 0.00 | 1066.9 | |
| 20260901145449 | 0 | 249 | 4.0 | 5.0 | 0.00 | 0.00 | 0.00 | 1066.8 | |
| 20260901144943 | 0 | 234 | 2.0 | 2.0 | 0.00 | 0.00 | 0.00 | 1066.6 | |
| 20260901144439 | 0 | 274 | 3.0 | 5.0 | 0.00 | 0.00 | 0.00 | 1066.9 | |
| 20260901143934 | 0 | 207 | 2.0 | 3.0 | 0.00 | 0.00 | 0.00 | 1066.7 | |
| 20260901143430 | 0 | 171 | 2.0 | 8.0 | 0.00 | 0.00 | 0.00 | 1066.8 | |
| 20260901142926 | 0 | 180 | 2.0 | 2.0 | 0.00 | 0.00 | 0.00 | 1066.7 | |
| 20260901142426 | 0 | 230 | 3.0 | 5.0 | 0.00 | 0.00 | 0.00 | 1066.6 | |
| 20260901141921 | 0 | 243 | 4.0 | 5.0 | 0.00 | 0.00 | 0.00 | 1066.9 | |
| 20260901141415 | 0 | 135 | 1.0 | 2.0 | 0.00 | 0.00 | 0.00 | 1066.7 | |
| 20260901140910 | 0 | 133 | 2.0 | 2.0 | 0.00 | 0.00 | 0.00 | 1066.9 | |
| 20260901140408 | 0 | 146 | 1.0 | 5.0 | 0.00 | 0.00 | 0.00 | 1066.7 | |
| 20260901135902 | 0 | 139 | 2.0 | 2.0 | 0.00 | 0.00 | 0.00 | 1066.8 | |
| 20260901135357 | 0 | 153 | 3.0 | 3.0 | 0.00 | 0.00 | 0.00 | 1066.6 | |
| 20260901134853 | 0 | 115 | 2.0 | 3.0 | 0.00 | 0.00 | 0.00 | 1066.7 | |
| 20260901134348 | 0 | 133 | 0.0 | 3.0 | 0.00 | 0.00 | 0.00 | 1066.9 | |
| 20260901133843 | 0 | 162 | 0.0 | 1.0 | 0.00 | 0.00 | 0.00 | 1066.8 | |
| 20260901133342 | 0 | 167 | 1.0 | 2.0 | 0.00 | 0.00 | 0.00 | 1066.8 | |
| 20260901132840 | 0 | 152 | 0.0 | 2.0 | 0.00 | 0.00 | 0.00 | 1066.8 | |
| 20260901132335 | 0 | 167 | 1.0 | 2.0 | 0.00 | 0.00 | 0.00 | 1066.7 | |
| 20260901131830 | 0 | 145 | 1.0 | 2.0 | 0.00 | 0.00 | 0.00 | 1066.7 | |
| 20260901131329 | 0 | 122 | 1.0 | 2.0 | 0.00 | 0.00 | 0.00 | 1066.7 | |
| 20260901130824 | 0 | 144 | 1.0 | 2.0 | 0.00 | 0.00 | 0.00 | 1066.6 | |
| 20260901130319 | 0 | 150 | 1.0 | 2.0 | 0.00 | 0.00 | 0.00 | 1066.5 | |
| 20260901125816 | 0 | 184 | 1.0 | 2.0 | 0.00 | 0.00 | 0.00 | 1066.7 | |
| 20260901125311 | 0 | 159 | 1.0 | 3.0 | 0.00 | 0.00 | 0.00 | 1066.6 | |
| 20260901124805 | 0 | 166 | 2.0 | 3.0 | 0.00 | 0.00 | 0.00 | 1066.6 | |
| 20260901124300 | 0 | 159 | 1.0 | 5.0 | 0.00 | 0.00 | 0.00 | 1066.6 | |
| 20260901123754 | 0 | 142 | 1.0 | 1.0 | 0.00 | 0.00 | 0.00 | 1066.3 | |
| 20260901123249 | 0 | 158 | 1.0 | 2.0 | 0.00 | 0.00 | 0.00 | 1066.3 | |
| 20260901122748 | 0 | 155 | 1.0 | 3.0 | 0.00 | 0.00 | 0.00 | 1066.2 | |
| 20260901122243 | 0 | 150 | 0.0 | 5.0 | 0.00 | 0.00 | 0.00 | 1066.1 | |
| 20260901121737 | 0 | 141 | 0.0 | 2.0 | 0.00 | 0.00 | 0.00 | 1066.2 | |
| 20260901121232 | 0 | 191 | 2.0 | 3.0 | 0.00 | 0.00 | 0.00 | 1066.2 | |
| 20260901120732 | 0 | 136 | 2.0 | 3.0 | 0.00 | 0.00 | 0.00 | 1066.1 | |
| 20260901120226 | 0 | 165 | 2.0 | 3.0 | 0.00 | 0.00 | 0.00 | 1065.7 | |
| 20260901115721 | 0 | 148 | 0.0 | 2.0 | 0.00 | 0.00 | 0.00 | 1065.7 | |
| 20260901115218 | 0 | 150 | 1.0 | 1.0 | 0.00 | 0.00 | 0.00 | 1066.0 | |
| 20260901114715 | 0 | 156 | 1.0 | 1.0 | 0.00 | 0.00 | 0.00 | 1066.0 | |
| 20260901114214 | 0 | 157 | 1.0 | 1.0 | 0.00 | 0.00 | 0.00 | 1065.7 | |
| 20260901113708 | 0 | 152 | 1.0 | 1.0 | 0.00 | 0.00 | 0.00 | 1065.5 | |
| 20260901113203 | 0 | 144 | 1.0 | 1.0 | 0.00 | 0.00 | 0.00 | 1065.5 | |
| 20260901112702 | 0 | 140 | 0.0 | 1.0 | 0.00 | 0.00 | 0.00 | 1065.4 | |
| 20260901112157 | 0 | 149 | 1.0 | 1.0 | 0.00 | 0.00 | 0.00 | 1065.5 | |
| 20260901111656 | 0 | 158 | 1.0 | 1.0 | 0.00 | 0.00 | 0.00 | 1065.4 | |
| 20260901111155 | 0 | 162 | 1.0 | 1.0 | 0.00 | 0.00 | 0.00 | 1065.4 | |
| 20260901110650 | 0 | 179 | 3.0 | 3.0 | 0.00 | 0.00 | 0.00 | 1065.4 | |
| 20260901110146 | 0 | 152 | 1.0 | 1.0 | 0.00 | 0.00 | 0.00 | 1065.4 | |
| 20260901105643 | 0 | 159 | 1.0 | 1.0 | 0.00 | 0.00 | 0.00 | 1065.2 | |
| 20260901105142 | 0 | 149 | 1.0 | 2.0 | 0.00 | 0.00 | 0.00 | 1065.3 | |
| 20260901104638 | 0 | 168 | 2.0 | 2.0 | 0.00 | 0.00 | 0.00 | 1065.3 | |
| 20260901104133 | 0 | 146 | 0.0 | 1.0 | 0.00 | 0.00 | 0.00 | 1065.3 | |
| 20260901103632 | 0 | 178 | 3.0 | 3.0 | 0.00 | 0.00 | 0.00 | 1065.4 | |
| 20260901103127 | 0 | 146 | 1.0 | 3.0 | 0.00 | 0.00 | 0.00 | 1065.3 | |
| 20260901102622 | 0 | 131 | 1.0 | 2.0 | 0.00 | 0.00 | 0.00 | 1065.4 | |
| 20260901102116 | 0 | 159 | 1.0 | 5.0 | 0.00 | 0.00 | 0.00 | 1065.1 | |
| 20260901101613 | 0 | 150 | 1.0 | 1.0 | 0.00 | 0.00 | 0.00 | 1065.2 | |
| 20260901101111 | 0 | 157 | 0.0 | 2.0 | 0.00 | 0.00 | 0.00 | 1065.2 | |
| 20260901100606 | 0 | 159 | 1.0 | 1.0 | 0.00 | 0.00 | 0.00 | 1065.3 | |
| 20260901100101 | 0 | 152 | 1.0 | 1.0 | 0.00 | 0.00 | 0.00 | 1065.4 | |
| 20260901095559 | 0 | 151 | 1.0 | 1.0 | 0.00 | 0.00 | 0.00 | 1065.1 | |
| 20260901095056 | 0 | 158 | 1.0 | 1.0 | 0.00 | 0.00 | 0.00 | 1065.2 | |
| 20260901094552 | 0 | 163 | 1.0 | 2.0 | 0.00 | 0.00 | 0.00 | 1065.1 | |
| 20260901094051 | 0 | 146 | 0.0 | 1.0 | 0.00 | 0.00 | 0.00 | 1065.2 | |
| 20260901093546 | 0 | 148 | 1.0 | 1.0 | 0.00 | 0.00 | 0.00 | 1065.1 | |
| 20260901093041 | 0 | 168 | 1.0 | 1.0 | 0.00 | 0.00 | 0.00 | 1065.1 | |
| 20260901092536 | 0 | 162 | 1.0 | 1.0 | 0.00 | 0.00 | 0.00 | 1065.3 | |
| 20260901092032 | 0 | 160 | 0.0 | 1.0 | 0.00 | 0.00 | 0.00 | 1065.2 | |
| 20260901091528 | 0 | 149 | 0.0 | 1.0 | 0.00 | 0.00 | 0.00 | 1065.0 | |
| 20260901091028 | 0 | 155 | 1.0 | 1.0 | 0.00 | 0.00 | 0.00 | 1065.2 | |
| 20260901090527 | 0 | 143 | 0.0 | 1.0 | 0.00 | 0.00 | 0.00 | 1065.1 | |
| 20260901090023 | 0 | 152 | 0.0 | 1.0 | 0.00 | 0.00 | 0.00 | 1065.2 | |
| 20260901085518 | 0 | 149 | 0.0 | 1.0 | 0.00 | 0.00 | 0.00 | 1065.1 | |
| 20260901085015 | 0 | 150 | 0.0 | 2.0 | 0.00 | 0.00 | 0.00 | 1065.1 | |
| 20260901084510 | 0 | 134 | 1.0 | 2.0 | 0.00 | 0.00 | 0.00 | 1065.1 | |
| 20260901084006 | 0 | 172 | 2.0 | 2.0 | 0.00 | 0.00 | 0.00 | 1064.9 | |
| 20260901083501 | 0 | 148 | 0.0 | 1.0 | 0.00 | 0.00 | 0.00 | 1064.9 | |
| 20260901082959 | 0 | 141 | 0.0 | 1.0 | 0.00 | 0.00 | 0.00 | 1064.9 | |
| 20260901082454 | 0 | 148 | 1.0 | 2.0 | 0.00 | 0.00 | 0.00 | 1064.7 | |
| 20260901081949 | 0 | 142 | 1.0 | 1.0 | 0.00 | 0.00 | 0.00 | 1064.8 | |
| 20260901081444 | 0 | 153 | 1.0 | 1.0 | 0.00 | 0.00 | 0.00 | 1064.7 | |
| 20260901080938 | 0 | 158 | 2.0 | 2.0 | 0.00 | 0.00 | 0.00 | 1064.9 | |
| 20260901080433 | 0 | 170 | 2.0 | 3.0 | 0.00 | 0.00 | 0.00 | 1064.7 | |
| 20260901075932 | 0 | 155 | 1.0 | 3.0 | 0.00 | 0.00 | 0.00 | 1064.8 | |
| 20260901075427 | 0 | 140 | 1.0 | 2.0 | 0.00 | 0.00 | 0.00 | 1064.9 | |
| 20260901074922 | 0 | 170 | 1.0 | 2.0 | 0.00 | 0.00 | 0.00 | 1064.8 | |
| 20260901074416 | 0 | 163 | 1.0 | 3.0 | 0.00 | 0.00 | 0.00 | 1064.8 | |
| 20260901073912 | 0 | 144 | 1.0 | 2.0 | 0.00 | 0.00 | 0.00 | 1064.7 | |
| 20260901073408 | 0 | 165 | 2.0 | 3.0 | 0.00 | 0.00 | 0.00 | 1064.7 | |
| 20260901072903 | 0 | 150 | 1.0 | 2.0 | 0.00 | 0.00 | 0.00 | 1064.9 | |
| 20260901072403 | 0 | 147 | 0.0 | 1.0 | 0.00 | 0.00 | 0.00 | 1064.8 | |
| 20260901071858 | 0 | 153 | 3.0 | 3.0 | 0.00 | 0.00 | 0.00 | 1064.9 | |
| 20260901071357 | 0 | 180 | 2.0 | 3.0 | 0.00 | 0.00 | 0.00 | 1064.7 | |
| 20260901070856 | 0 | 176 | 2.0 | 2.0 | 0.00 | 0.00 | 0.00 | 1064.9 | |
| 20260901070352 | 0 | 165 | 1.0 | 3.0 | 0.00 | 0.00 | 0.00 | 1065.0 | |
| 20260901065850 | 0 | 157 | 1.0 | 3.0 | 0.00 | 0.00 | 0.00 | 1064.8 | |
| 20260901065346 | 0 | 161 | 2.0 | 3.0 | 0.00 | 0.00 | 0.00 | 1064.8 | |
| 20260901064841 | 0 | 155 | 1.0 | 5.0 | 0.00 | 0.00 | 0.00 | 1064.7 | |
| 20260901064338 | 0 | 165 | 2.0 | 2.0 | 0.00 | 0.00 | 0.00 | 1064.8 | |
| 20260901063835 | 0 | 176 | 2.0 | 3.0 | 0.00 | 0.00 | 0.00 | 1065.0 | |
| 20260901063331 | 0 | 147 | 1.0 | 3.0 | 0.00 | 0.00 | 0.00 | 1064.7 | |
| 20260901062826 | 0 | 150 | 0.0 | 2.0 | 0.00 | 0.00 | 0.00 | 1064.9 | |
| 20260901062323 | 0 | 173 | 1.0 | 1.0 | 0.00 | 0.00 | 0.00 | 1064.9 | |
| 20260901061818 | 0 | 173 | 1.0 | 3.0 | 0.00 | 0.00 | 0.00 | 1064.7 | |
| 20260901061313 | 0 | 156 | 2.0 | 3.0 | 0.00 | 0.00 | 0.00 | 1064.9 | |
| 20260901060808 | 0 | 161 | 1.0 | 3.0 | 0.00 | 0.00 | 0.00 | 1064.8 | |
| 20260901060304 | 0 | 145 | 3.0 | 6.0 | 0.00 | 0.00 | 0.00 | 1064.7 | |
| 20260901055758 | 0 | 180 | 2.0 | 3.0 | 0.00 | 0.00 | 0.00 | 1064.8 | |
| 20260901055255 | 0 | 178 | 2.0 | 5.0 | 0.00 | 0.00 | 0.00 | 1064.7 | |
| 20260901054751 | 0 | 166 | 2.0 | 6.0 | 0.00 | 0.00 | 0.00 | 1064.8 | |
| 20260901054248 | 0 | 170 | 1.0 | 3.0 | 0.00 | 0.00 | 0.00 | 1064.8 | |
| 20260901053743 | 0 | 176 | 3.0 | 3.0 | 0.00 | 0.00 | 0.00 | 1064.8 | |
| 20260901053238 | 0 | 160 | 3.0 | 5.0 | 0.00 | 0.00 | 0.00 | 1064.6 | |
| 20260901052734 | 0 | 175 | 2.0 | 6.0 | 0.00 | 0.00 | 0.00 | 1064.8 | |
| 20260901052229 | 0 | 181 | 3.0 | 3.0 | 0.00 | 0.00 | 0.00 | 1064.8 | |
| 20260901051728 | 0 | 163 | 3.0 | 3.0 | 0.00 | 0.00 | 0.00 | 1064.8 | |
| 20260901051222 | 0 | 167 | 2.0 | 3.0 | 0.00 | 0.00 | 0.00 | 1064.9 | |
| 20260901050718 | 0 | 184 | 3.0 | 5.0 | 0.00 | 0.00 | 0.00 | 1064.8 | |
| 20260901050213 | 0 | 161 | 3.0 | 3.0 | 0.00 | 0.00 | 0.00 | 1064.7 | |
| 20260901045708 | 0 | 167 | 3.0 | 3.0 | 0.00 | 0.00 | 0.00 | 1064.8 | |
| 20260901045203 | 0 | 178 | 3.0 | 5.0 | 0.00 | 0.00 | 0.00 | 1064.5 | |
| 20260901044658 | 0 | 152 | 2.0 | 2.0 | 0.00 | 0.00 | 0.00 | 1064.7 | |
| 20260901044154 | 0 | 144 | 1.0 | 5.0 | 0.00 | 0.00 | 0.00 | 1064.7 | |
| 20260901043650 | 0 | 168 | 2.0 | 2.0 | 0.00 | 0.00 | 0.00 | 1064.8 | |
| 20260901043145 | 0 | 145 | 3.0 | 3.0 | 0.00 | 0.00 | 0.00 | 1064.8 | |
| 20260901042644 | 0 | 149 | 1.0 | 2.0 | 0.00 | 0.00 | 0.00 | 1064.8 | |
| 20260901042140 | 0 | 179 | 1.0 | 2.0 | 0.00 | 0.00 | 0.00 | 1064.6 | |
| 20260901041636 | 0 | 152 | 1.0 | 2.0 | 0.00 | 0.00 | 0.00 | 1064.4 | |
| 20260901041130 | 0 | 164 | 1.0 | 3.0 | 0.00 | 0.00 | 0.00 | 1064.6 | |
| 20260901040630 | 0 | 151 | 1.0 | 2.0 | 0.00 | 0.00 | 0.00 | 1064.5 | |
| 20260901040129 | 0 | 167 | 2.0 | 5.0 | 0.00 | 0.00 | 0.00 | 1064.8 | |
| 20260901035628 | 0 | 201 | 3.0 | 7.0 | 0.00 | 0.00 | 0.00 | 1064.8 | |
| 20260901035126 | 0 | 179 | 3.0 | 3.0 | 0.00 | 0.00 | 0.00 | 1064.7 | |
| 20260901034621 | 0 | 197 | 2.0 | 6.0 | 0.00 | 0.00 | 0.00 | 1064.5 | |
| 20260901034115 | 0 | 176 | 4.0 | 5.0 | 0.00 | 0.00 | 0.00 | 1064.6 | |
| 20260901033614 | 0 | 193 | 4.0 | 5.0 | 0.00 | 0.00 | 0.00 | 1064.4 | |
| 20260901033109 | 0 | 172 | 3.0 | 3.0 | 0.00 | 0.00 | 0.00 | 1064.6 | |
| 20260901032608 | 0 | 173 | 2.0 | 6.0 | 0.00 | 0.00 | 0.00 | 1064.5 | |
| 20260901032103 | 0 | 166 | 4.0 | 6.0 | 0.00 | 0.00 | 0.00 | 1064.4 | |
| 20260901031558 | 0 | 147 | 3.0 | 6.0 | 0.00 | 0.00 | 0.00 | 1064.3 | |
| 20260901031054 | 0 | 157 | 4.0 | 7.0 | 0.00 | 0.00 | 0.00 | 1064.5 | |
| 20260901030553 | 0 | 178 | 2.0 | 6.0 | 0.00 | 0.00 | 0.00 | 1064.4 | |
| 20260901030048 | 0 | 172 | 2.0 | 3.0 | 0.00 | 0.00 | 0.00 | 1064.5 | |
| 20260901025542 | 0 | 162 | 2.0 | 5.0 | 0.00 | 0.00 | 0.00 | 1064.4 | |
| 20260901025037 | 0 | 143 | 2.0 | 3.0 | 0.00 | 0.00 | 0.00 | 1064.4 | |
| 20260901024532 | 0 | 139 | 5.0 | 7.0 | 0.00 | 0.00 | 0.00 | 1064.5 | |
| 20260901024030 | 0 | 151 | 1.0 | 2.0 | 0.00 | 0.00 | 0.00 | 1064.3 | |
| 20260901023524 | 0 | 158 | 1.0 | 3.0 | 0.00 | 0.00 | 0.00 | 1064.6 | |
| 20260901023020 | 0 | 163 | 3.0 | 3.0 | 0.00 | 0.00 | 0.00 | 1064.2 | |
| 20260901022515 | 0 | 152 | 2.0 | 5.0 | 0.00 | 0.00 | 0.00 | 1064.3 | |
| 20260901022010 | 0 | 159 | 1.0 | 2.0 | 0.00 | 0.00 | 0.00 | 1064.3 | |
| 20260901021505 | 0 | 148 | 2.0 | 3.0 | 0.00 | 0.00 | 0.00 | 1063.9 | |
| 20260901021000 | 0 | 132 | 2.0 | 2.0 | 0.00 | 0.00 | 0.00 | 1064.3 | |
| 20260901020450 | 0 | 165 | 2.0 | 3.0 | 0.00 | 0.00 | 0.00 | 1064.2 | |
| 20260901015949 | 0 | 142 | 3.0 | 6.0 | 0.00 | 0.00 | 0.00 | 1064.0 | |
| 20260901015446 | 0 | 152 | 2.0 | 3.0 | 0.00 | 0.00 | 0.00 | 1063.9 | |
| 20260901014945 | 0 | 145 | 3.0 | 5.0 | 0.00 | 0.00 | 0.00 | 1063.8 | |
| 20260901014441 | 0 | 161 | 1.0 | 2.0 | 0.00 | 0.00 | 0.00 | 1063.7 | |
| 20260901013937 | 0 | 164 | 3.0 | 5.0 | 0.00 | 0.00 | 0.00 | 1063.8 | |
| 20260901013432 | 0 | 175 | 2.0 | 3.0 | 0.00 | 0.00 | 0.00 | 1063.7 | |
| 20260901012928 | 0 | 163 | 1.0 | 2.0 | 0.00 | 0.00 | 0.00 | 1063.8 | |
| 20260901012422 | 0 | 169 | 1.0 | 3.0 | 0.00 | 0.00 | 0.00 | 1063.5 | |
| 20260901011918 | 0 | 134 | 2.0 | 3.0 | 0.00 | 0.00 | 0.00 | 1063.6 | |
| 20260901011414 | 0 | 156 | 1.0 | 2.0 | 0.00 | 0.00 | 0.00 | 1063.5 | |
| 20260901010912 | 0 | 158 | 1.0 | 2.0 | 0.00 | 0.00 | 0.00 | 1063.5 | |
| 20260901010407 | 0 | 148 | 1.0 | 2.0 | 0.00 | 0.00 | 0.00 | 1063.7 | |
| 20260901005906 | 0 | 158 | 1.0 | 2.0 | 0.00 | 0.00 | 0.00 | 1063.4 | |
| 20260901005401 | 0 | 155 | 1.0 | 2.0 | 0.00 | 0.00 | 0.00 | 1063.6 | |
| 20260901004856 | 0 | 143 | 0.0 | 1.0 | 0.00 | 0.00 | 0.00 | 1063.4 | |
| 20260901004355 | 0 | 169 | 2.0 | 2.0 | 0.00 | 0.00 | 0.00 | 1063.5 | |
| 20260901003850 | 0 | 148 | 1.0 | 1.0 | 0.00 | 0.00 | 0.00 | 1063.4 | |
| 20260901003345 | 0 | 148 | 1.0 | 2.0 | 0.00 | 0.00 | 0.00 | 1063.5 | |
| 20260901002844 | 0 | 159 | 1.0 | 2.0 | 0.00 | 0.00 | 0.00 | 1063.1 | |
| 20260901002343 | 0 | 171 | 2.0 | 3.0 | 0.00 | 0.00 | 0.00 | 1063.3 | |
| 20260901001838 | 0 | 150 | 1.0 | 2.0 | 0.00 | 0.00 | 0.00 | 1063.4 | |
| 20260901001333 | 0 | 149 | 2.0 | 5.0 | 0.00 | 0.00 | 0.00 | 1063.4 | |
| 20260901000829 | 0 | 176 | 3.0 | 6.0 | 0.00 | 0.00 | 0.00 | 1063.3 | |
| 20260901000324 | 0 | 169 | 1.0 | 3.0 | 0.00 | 0.00 | 0.00 | 1063.1 | |
| 20260831235822 | 0 | 143 | 0.0 | 2.0 | 0.00 | 0.00 | 0.00 | 1063.1 | |
| 20260831235319 | 0 | 133 | 2.0 | 3.0 | 0.00 | 0.00 | 0.00 | 1063.4 | |
| 20260831234813 | 0 | 127 | 3.0 | 5.0 | 0.00 | 0.00 | 0.00 | 1063.5 | |
| 20260831234313 | 0 | 144 | 0.0 | 1.0 | 0.00 | 0.00 | 0.00 | 1063.3 | |
| 20260831233809 | 0 | 210 | 2.0 | 2.0 | 0.00 | 0.00 | 0.00 | 1063.3 | |
| 20260831233304 | 0 | 165 | 1.0 | 6.0 | 0.00 | 0.00 | 0.00 | 1063.1 | |
| 20260831232759 | 0 | 149 | 1.0 | 5.0 | 0.00 | 0.00 | 0.00 | 1063.3 | |
| 20260831232255 | 0 | 151 | 1.0 | 1.0 | 0.00 | 0.00 | 0.00 | 1063.5 | |
| 20260831231751 | 0 | 176 | 2.0 | 6.0 | 0.00 | 0.00 | 0.00 | 1063.0 | |
| 20260831231247 | 0 | 154 | 0.0 | 3.0 | 0.00 | 0.00 | 0.00 | 1063.1 | |
| 20260831230742 | 0 | 174 | 3.0 | 7.0 | 0.00 | 0.00 | 0.00 | 1063.3 | |
| 20260831230237 | 0 | 156 | 2.0 | 5.0 | 0.00 | 0.00 | 0.00 | 1063.1 | |
| 20260831225736 | 0 | 183 | 1.0 | 2.0 | 0.00 | 0.00 | 0.00 | 1063.4 | |
| 20260831225232 | 0 | 119 | 0.0 | 2.0 | 0.00 | 0.00 | 0.00 | 1063.1 | |
| 20260831224726 | 0 | 163 | 1.0 | 2.0 | 0.00 | 0.00 | 0.00 | 1063.1 | |
| 20260831224222 | 0 | 172 | 3.0 | 6.0 | 0.00 | 0.00 | 0.00 | 1063.3 | |
| 20260831223717 | 0 | 180 | 1.0 | 3.0 | 0.00 | 0.00 | 0.00 | 1063.1 | |
| 20260831223213 | 0 | 166 | 2.0 | 3.0 | 0.00 | 0.00 | 0.00 | 1063.5 | |
| 20260831222709 | 0 | 136 | 1.0 | 2.0 | 0.00 | 0.00 | 0.00 | 1063.0 | |
| 20260831222205 | 0 | 182 | 2.0 | 2.0 | 0.00 | 0.00 | 0.00 | 1063.4 | |
| 20260831221700 | 0 | 165 | 0.0 | 6.0 | 0.00 | 0.00 | 0.00 | 1063.3 | |
| 20260831221155 | 0 | 191 | 2.0 | 3.0 | 0.00 | 0.00 | 0.00 | 1063.6 | |
| 20260831220650 | 0 | 191 | 2.0 | 2.0 | 0.00 | 0.00 | 0.00 | 1063.4 | |
| 20260831220145 | 0 | 153 | 6.0 | 11.0 | 0.00 | 0.00 | 0.00 | 1063.1 | |
| 20260831215640 | 0 | 197 | 3.0 | 13.0 | 0.00 | 0.00 | 0.00 | 1063.4 | |
| 20260831215136 | 0 | 153 | 2.0 | 2.0 | 0.00 | 0.00 | 0.00 | 1063.4 | |
| 20260831214633 | 0 | 176 | 2.0 | 14.0 | 0.00 | 0.00 | 0.00 | 1063.5 | |
| 20260831214130 | 0 | 169 | 4.0 | 5.0 | 0.00 | 0.00 | 0.00 | 1063.5 | |
| 20260831213626 | 0 | 198 | 5.0 | 8.0 | 0.00 | 0.00 | 0.00 | 1063.6 | |
| 20260831213120 | 0 | 141 | 2.0 | 3.0 | 0.00 | 0.00 | 0.00 | 1063.4 | |
| 20260831212616 | 0 | 186 | 3.0 | 6.0 | 0.00 | 0.00 | 0.00 | 1063.4 | |
| 20260831212112 | 0 | 166 | 6.0 | 8.0 | 0.00 | 0.00 | 0.00 | 1063.4 | |
| 20260831211607 | 0 | 151 | 10.0 | 11.0 | 0.00 | 0.00 | 0.00 | 1063.1 | |
| 20260831211106 | 0 | 184 | 3.0 | 5.0 | 0.00 | 0.00 | 0.00 | 1063.4 | |
| 20260831210601 | 0 | 173 | 6.0 | 8.0 | 0.00 | 0.00 | 0.00 | 1063.6 | |
| 20260831210057 | 0 | 196 | 4.0 | 7.0 | 0.00 | 0.00 | 0.00 | 1063.6 | |
| 20260831205557 | 0 | 188 | 5.0 | 6.0 | 0.00 | 0.00 | 0.00 | 1063.7 | |
| 20260831205053 | 0 | 153 | 5.0 | 7.0 | 0.00 | 0.00 | 0.00 | 1063.7 | |
| 20260831204547 | 0 | 180 | 7.0 | 9.0 | 0.00 | 0.00 | 0.00 | 1063.8 | |
| 20260831204046 | 0 | 150 | 4.0 | 5.0 | 0.00 | 0.00 | 0.00 | 1063.8 | |
| 20260831203540 | 0 | 147 | 3.0 | 7.0 | 0.00 | 0.00 | 0.00 | 1064.0 | |
| 20260831203040 | 0 | 237 | 1.0 | 5.0 | 0.00 | 0.00 | 0.00 | 1063.7 | |
| 20260831202539 | 0 | 198 | 1.0 | 2.0 | 0.00 | 0.00 | 0.00 | 1064.0 | |
| 20260831202038 | 0 | 192 | 3.0 | 9.0 | 0.00 | 0.00 | 0.00 | 1063.9 | |
| 20260831201537 | 0 | 114 | 2.0 | 9.0 | 0.00 | 0.00 | 0.00 | 1063.9 | |
| 20260831201033 | 0 | 203 | 1.0 | 5.0 | 0.00 | 0.00 | 0.00 | 1064.1 | |
| 20260831200523 | 0 | 175 | 1.0 | 2.0 | 0.00 | 0.00 | 0.00 | 1064.1 | |
| 20260831200018 | 0 | 274 | 3.0 | 6.0 | 0.00 | 0.00 | 0.00 | 1064.1 | |
| 20260831195514 | 0 | 176 | 6.0 | 8.0 | 0.00 | 0.00 | 0.00 | 1064.1 | |
| 20260831195013 | 0 | 144 | 0.0 | 6.0 | 0.00 | 0.00 | 0.00 | 1064.0 | |
| 20260831194508 | 0 | 214 | 5.0 | 6.0 | 0.00 | 0.00 | 0.00 | 1064.0 | |
| 20260831194003 | 0 | 290 | 3.0 | 5.0 | 0.00 | 0.00 | 0.00 | 1063.9 | |
| 20260831193458 | 0 | 200 | 2.0 | 5.0 | 0.00 | 0.00 | 0.00 | 1064.2 |